Hourly Data Report for April 30, 2021

MIRAMICHI RCS
NEW BRUNSWICK
Current Station Operator: ECCC - MSC

47°00'34.000" N
65°27'54.000" W
33.00 m
8100989
71744
ACQ

Download Data

Hourly Data (April 2021)
Hourly Data Report for April 30, 2021
TIME
LST
Temp Definition
°C
Dew Point Definition
°C
Rel Hum Definition
%
Precip. Amount Definition
mm

Wind Dir Definition
10's deg

Wind Spd Definition
km/h
Visibility Definition
km
Stn Press Definition
kPa
Hmdx Definition


Wind Chill Definition


Weather Definition


00:00 6.1 2.3 76 LegendMM 4 9   99.92     LegendNANA
01:00 5.9 2.9 81 LegendMM 4 10   99.86     LegendNANA
02:00 4.8 3.5 92 LegendMM 5 10   99.72     LegendNANA
03:00 4.2 3.0 92 LegendMM 4 9   99.66     LegendNANA
04:00 3.9 2.8 92 LegendMM 5 7   99.61     LegendNANA
05:00 3.7 2.7 93 LegendMM 4 11   99.50     LegendNANA
06:00 4.4 3.1 91 LegendMM 5 13   99.40     LegendNANA
07:00 5.3 3.1 85 LegendMM 4 13   99.38     LegendNANA
08:00 5.4 2.4 81 LegendMM 5 20   99.27     LegendNANA
09:00 5.4 1.8 78 LegendMM 5 21   99.21     LegendNANA
10:00 5.5 1.6 76 LegendMM 6 27   99.09     LegendNANA
11:00 5.2 2.9 85 LegendMM 6 24   99.03     LegendNANA
12:00 4.6 2.3 85 LegendMM 5 22   98.92     LegendNANA
13:00 4.6 2.0 83 LegendMM 6 27   98.81     LegendNANA
14:00 4.1 2.5 89 LegendMM 6 27   98.74     LegendNANA
15:00 4.4 2.6 88 LegendMM 4 21   98.60     LegendNANA
16:00 4.6 2.7 87 LegendMM 4 20   98.42     LegendNANA
17:00 4.4 3.0 91 LegendMM 3 16   98.41     LegendNANA
18:00 3.7 2.5 92 LegendMM 3 17   98.38     LegendNANA
19:00 3.2 2.1 93 LegendMM 2 18   98.34     LegendNANA
20:00 2.1 1.1 93 LegendMM 2 19   98.34     LegendNANA
21:00 1.6 0.7 94 LegendMM 1 18   98.33     LegendNANA
22:00 1.6 0.7 94 LegendMM 1 18   98.33     LegendNANA
23:00 1.4 0.5 94 LegendMM 1 15   98.35     LegendNANA

Notes on Data Quality.

Legend

  • E = Estimated
  • M = Missing
  • NA = Not Available*
  • [empty] = Indicates an unobserved value
Date modified: